Home   Weather   Tyler   Past weeks

Flag for USA Past Weather in Tyler, Texas, USA — Yesterday and Last 2 Weeks

Now
30 °F

Overcast.


Feels Like: 24 °F
Forecast: 28 / 45 °F
Wind: 6 mph from Northeast

Location: Tyler Pounds Field

Current Time: Dec 9, 2016 at 9:39:21 am

Latest Report: Dec 9, 2016 at 8:53 am


Visibility: 10 mi

Pressure: 30.66 "Hg

Humidity: 61%

Dew Point: 18 °F

Location of TylerLocation

Past Weather in Tyler — Graph

°F

Tyler Temperature Yesterday

Maximum temperature yesterday: 45 °F (at 1:01 am)
Minimum temperature yesterday: 32 °F (at 10:53 pm)
Average temperature yesterday: 38 °F

High & Low Weather Summary for the Past Weeks

 TemperatureHumidityPressure
High74 °F (Nov 28, 2:53 pm)100% (Dec 7, 7:53 am)30.66 "Hg (Dec 7, 7:53 am)
Low27 °F (Dec 9, 5:53 am)17% (Dec 1, 2:53 pm)29.43 "Hg (Nov 28, 2:53 pm)
Average52 °F74%30.05 "Hg
* Reported Nov 24 7:53 am — Dec 9 7:53 am, Tyler, Weather by CustomWeather, © 2016

Note: Actual official high and low records may vary slightly from our data, if they occured in-between our weather recording intervals... More about our weather records

Advertising

Tyler Weather History for the Previous 24 Hours

Scroll right to see more
 ConditionsComfort  
Time TempWeatherWind HumidityBarometerVisibility
7:53 am
Fri, Dec 9
29 °FOvercast.6 mph64%30.66 "Hg10 mi
6:53 am27 °FClear.5 mph66%30.65 "Hg10 mi
5:53 am27 °FClear.7 mph66%30.63 "Hg10 mi
4:53 am28 °FClear.6 mph64%30.63 "Hg10 mi
3:53 am29 °FClear.5 mph61%30.63 "Hg10 mi
2:53 am29 °FClear.7 mph61%30.63 "Hg10 mi
1:53 am30 °FClear.6 mph59%30.63 "Hg10 mi
12:53 am31 °FClear.9 mph57%30.64 "Hg10 mi
11:53 pm
Thu, Dec 8
32 °FPassing clouds.7 mph59%30.65 "Hg10 mi
10:53 pm32 °FPassing clouds.3 mph64%30.64 "Hg10 mi
9:53 pm33 °FClear.5 mph58%30.64 "Hg10 mi
8:53 pm35 °FOvercast.6 mph52%30.62 "Hg10 mi
7:53 pm35 °FClear.8 mph52%30.61 "Hg10 mi
6:53 pm35 °FClear.8 mph50%30.59 "Hg10 mi
5:53 pm36 °FOvercast.10 mph50%30.57 "Hg10 mi
4:53 pm36 °FMore clouds than sun.14 mph52%30.55 "Hg10 mi
3:53 pm37 °FOvercast.14 mph52%30.57 "Hg10 mi
2:53 pm37 °FOvercast.14 mph57%30.55 "Hg10 mi
1:53 pm39 °FOvercast.15 mph57%30.54 "Hg10 mi
12:53 pm40 °FOvercast.15 mph60%30.53 "Hg10 mi
11:53 am38 °FOvercast.15 mph68%30.56 "Hg10 mi
10:53 am37 °FOvercast.12 mph70%30.58 "Hg10 mi
9:53 am38 °FOvercast.13 mph70%30.58 "Hg10 mi
Weather by CustomWeather, © 2016

See weather overviewHow to use our weather pages